Weather History for Selawik, AK

Change the Weather History Date:

Friday, March 1, 2013

  Actual Average Record
Temperature  
Mean Temperature -16 °F -  
Max Temperature -7 °F 4 °F 32 °F (2014)
Min Temperature -25 °F -4 °F -36 °F (2007)
Degree Days  
Heating Degree Days 81    
Moisture  
Dew Point -23 °F    
Average Humidity 64    
Maximum Humidity 100    
Minimum Humidity 38    
Precipitation  
Precipitation 0.00 in - - ()
Sea Level Pressure  
Sea Level Pressure 30.04 in    
Wind  
Wind Speed 15 mph (West)    
Max Wind Speed 21 mph    
Max Gust Speed 25 mph    
Visibility 7 miles    
Events      
Averages and records for this station are not official NWS values.
T = Trace of Precipitation, MM = Missing Value Source: NWS Daily Summary

Daily Weather History Graph

Daily Weather History Graph

Search for Another Location

Airport:

Trip Planner

Search our weather history database for the weather conditions in past years. The results will help you decide how hot, cold, wet, or windy it might be!

Date:

Astronomy

Mar. 01, 2013 Rise Set
Actual Time 8:52 AM AKST 6:53 PM AKST
Civil Twilight 7:59 AM AKST 7:46 PM AKST
Nautical Twilight 6:59 AM AKST 8:47 PM AKST
Astronomical Twilight 5:55 AM AKST 9:50 PM AKST
Moon 12:30 AM AKST (3/1) 8:38 AM AKST (3/1)
Length of Visible Light 11h 46m
Length of Day
10h 00m
Waning Gibbous, 82% of the Moon is Illuminated
Mar 1
Waning Gibbous
Mar 4
Last Quarter
Mar 11
New
Mar 19
First Quarter
Mar 27
Full

Hourly Weather History & Observations

Time (AKST) Temp. Windchill Dew Point Humidity Pressure Visibility Wind Dir Wind Speed Gust Speed Precip Events Conditions
12:16 AM -7.6 °F -29.8 °F -20.2 °F 54% 29.80 in 10.0 mi WSW 16.1 mph 23.0 mph N/A   Partly Cloudy
12:56 AM -9.4 °F -32.8 °F -18.4 °F 65% 29.81 in 10.0 mi West 17.3 mph 21.9 mph N/A   Mostly Cloudy
1:16 AM -9.4 °F -32.8 °F -18.4 °F 65% 29.82 in 10.0 mi West 17.3 mph 24.2 mph N/A   Mostly Cloudy
1:36 AM -9.4 °F -33.5 °F -16.6 °F 71% 29.83 in 10.0 mi West 18.4 mph 24.2 mph N/A   Scattered Clouds
1:56 AM -9.4 °F -32.1 °F -18.4 °F 65% 29.84 in 10.0 mi West 16.1 mph 21.9 mph N/A   Clear
2:16 AM -9.4 °F -32.8 °F -14.8 °F 77% 29.84 in 10.0 mi West 17.3 mph 23.0 mph N/A   Clear
3:36 AM -7.6 °F -31.1 °F -27.4 °F 38% 29.86 in 9.0 mi West 18.4 mph 25.3 mph N/A   Overcast
3:56 AM -7.6 °F -29.8 °F - N/A% 29.87 in 5.0 mi West 16.1 mph 21.9 mph N/A   Overcast
4:16 AM -7.6 °F -29.1 °F - N/A% 29.89 in 3.0 mi West 15.0 mph 24.2 mph N/A   Overcast
4:36 AM -7.6 °F -29.1 °F -27.4 °F 38% 29.89 in 3.0 mi West 15.0 mph 23.0 mph N/A   Overcast
4:56 AM -9.4 °F -31.4 °F -23.8 °F 49% 29.91 in 4.0 mi West 15.0 mph 20.7 mph N/A   Overcast
5:16 AM -9.4 °F -33.5 °F -22.0 °F 54% 29.91 in 4.0 mi West 18.4 mph 21.9 mph N/A   Overcast
5:36 AM -9.4 °F -31.4 °F -20.2 °F 59% 29.92 in 4.0 mi West 15.0 mph - N/A   Overcast
5:56 AM -9.4 °F -32.8 °F -20.2 °F 59% 29.94 in 4.0 mi West 17.3 mph - N/A   Overcast
6:16 AM -9.4 °F -32.8 °F -18.4 °F 65% 29.94 in 5.0 mi West 17.3 mph 25.3 mph N/A   Overcast
6:36 AM -9.4 °F -33.5 °F -20.2 °F 59% 29.95 in 4.0 mi West 18.4 mph - N/A   Overcast
6:56 AM -11.2 °F -34.4 °F -20.2 °F 64% 29.96 in 3.0 mi West 16.1 mph 24.2 mph N/A   Overcast
7:16 AM -11.2 °F -34.4 °F -20.2 °F 64% 29.96 in 3.0 mi West 16.1 mph 21.9 mph N/A   Overcast
7:36 AM -11.2 °F -35.8 °F -22.0 °F 59% 29.96 in 3.0 mi West 18.4 mph 24.2 mph N/A   Overcast
7:56 AM -11.2 °F -34.4 °F -20.2 °F 64% 29.97 in 3.0 mi West 16.1 mph 24.2 mph N/A   Overcast
8:16 AM -11.2 °F -34.4 °F -22.0 °F 59% 29.98 in 3.0 mi West 16.1 mph 23.0 mph N/A   Mostly Cloudy
8:36 AM -11.2 °F -35.2 °F -20.2 °F 64% 29.99 in 2.0 mi West 17.3 mph 20.7 mph N/A   Overcast
8:56 AM -13.0 °F -36.0 °F -20.2 °F 70% 29.99 in 3.0 mi West 15.0 mph 20.7 mph N/A   Overcast
9:16 AM -13.0 °F -36.0 °F -25.6 °F 53% 30.00 in 2.5 mi West 15.0 mph 21.9 mph N/A   Overcast
9:36 AM -14.8 °F -37.5 °F -16.6 °F 92% 30.00 in 2.5 mi West 13.8 mph - N/A   Overcast
9:56 AM -14.8 °F -39.1 °F -27.4 °F 53% 30.01 in 3.0 mi West 16.1 mph 20.7 mph N/A   Overcast
10:16 AM -14.8 °F -39.1 °F -16.6 °F 92% 30.02 in 2.5 mi West 16.1 mph 23.0 mph N/A   Overcast
10:36 AM -14.8 °F -41.2 °F -27.4 °F 53% 30.02 in 2.5 mi West 19.6 mph 24.2 mph N/A   Overcast
10:56 AM -14.8 °F -41.2 °F -22.0 °F 70% 30.03 in 2.5 mi West 19.6 mph 25.3 mph N/A   Overcast
11:16 AM -14.8 °F -41.8 °F -23.8 °F 64% 30.04 in 3.0 mi West 20.7 mph 25.3 mph N/A   Overcast
11:36 AM -14.8 °F -39.8 °F -27.4 °F 53% 30.04 in 4.0 mi WSW 17.3 mph 24.2 mph N/A   Overcast
11:56 AM -16.6 °F -43.5 °F -20.2 °F 84% 30.04 in 3.0 mi West 19.6 mph 25.3 mph N/A   Overcast
12:16 PM -16.6 °F -40.6 °F -29.2 °F 53% 30.06 in 5.0 mi West 15.0 mph 23.0 mph N/A   Mostly Cloudy
12:36 PM -16.6 °F -40.6 °F -23.8 °F 70% 30.06 in 7.0 mi WSW 15.0 mph 20.7 mph N/A   Partly Cloudy
12:56 PM -16.6 °F -39.8 °F -23.8 °F 70% 30.07 in 7.0 mi WSW 13.8 mph 20.7 mph N/A   Partly Cloudy
1:16 PM -16.6 °F -42.1 °F -29.2 °F 53% 30.07 in 9.0 mi WSW 17.3 mph 20.7 mph N/A   Partly Cloudy
1:36 PM -16.6 °F -41.4 °F -20.2 °F 84% 30.07 in 8.0 mi WSW 16.1 mph - N/A   Clear
1:56 PM -14.8 °F -39.8 °F -25.6 °F 58% 30.08 in 7.0 mi WSW 17.3 mph - N/A   Clear
2:16 PM -14.8 °F -39.8 °F -23.8 °F 64% 30.09 in 8.0 mi West 17.3 mph - N/A   Clear
2:36 PM -14.8 °F -39.1 °F -20.2 °F 77% 30.09 in 10.0 mi WSW 16.1 mph - N/A   Clear
2:56 PM -14.8 °F -39.1 °F -27.4 °F 53% 30.09 in 10.0 mi West 16.1 mph 20.7 mph N/A   Clear
3:16 PM -14.8 °F -38.3 °F -16.6 °F 92% 30.09 in 10.0 mi West 15.0 mph - N/A   Clear
3:36 PM -14.8 °F -38.3 °F -27.4 °F 53% 30.10 in 10.0 mi WSW 15.0 mph 19.6 mph N/A   Clear
3:56 PM -13.0 °F -36.0 °F -18.4 °F 77% 30.10 in 10.0 mi WSW 15.0 mph 18.4 mph N/A   Clear
4:16 PM -14.8 °F -37.5 °F -27.4 °F 53% 30.11 in 10.0 mi WSW 13.8 mph 19.6 mph N/A   Clear
4:36 PM -14.8 °F -37.5 °F -27.4 °F 53% 30.11 in 10.0 mi WSW 13.8 mph - N/A   Clear
4:56 PM -14.8 °F -35.6 °F -14.8 °F 100% 30.12 in 10.0 mi WSW 11.5 mph - N/A   Clear
5:16 PM -14.8 °F -35.6 °F - N/A% 30.12 in 10.0 mi WSW 11.5 mph - N/A   Clear
5:36 PM -16.6 °F -37.9 °F -29.2 °F 53% 30.12 in 10.0 mi WSW 11.5 mph - N/A   Clear
5:56 PM -16.6 °F -37.9 °F -20.2 °F 84% 30.12 in 10.0 mi WSW 11.5 mph - N/A   Clear
6:16 PM -16.6 °F -37.9 °F -29.2 °F 53% 30.13 in 10.0 mi WSW 11.5 mph - N/A   Clear
6:36 PM -16.6 °F -38.9 °F -29.2 °F 53% 30.14 in 10.0 mi WSW 12.7 mph - N/A   Clear
6:56 PM -18.4 °F -42.1 °F -23.8 °F 76% 30.13 in 10.0 mi West 13.8 mph - N/A   Clear
7:16 PM -18.4 °F -40.2 °F -27.4 °F 63% 30.14 in 10.0 mi West 11.5 mph - N/A   Clear
7:36 PM -18.4 °F -39.1 °F -29.2 °F 58% 30.14 in 10.0 mi West 10.4 mph - N/A   Clear
7:56 PM - - - N/A% 30.14 in 10.0 mi West 10.4 mph - N/A   Clear
8:16 PM -20.2 °F -38.8 °F -29.2 °F 63% 30.15 in 10.0 mi West 8.1 mph - N/A   Clear
8:36 PM -20.2 °F -37.3 °F - N/A% 30.16 in 10.0 mi West 6.9 mph - N/A   Clear
8:56 PM -22.0 °F -39.4 °F - N/A% 30.16 in 10.0 mi West 6.9 mph - N/A   Clear
9:16 PM -22.0 °F -41.0 °F - N/A% 30.17 in 7.0 mi West 8.1 mph - N/A   Clear
9:36 PM -23.8 °F -43.2 °F - N/A% 30.17 in 10.0 mi West 8.1 mph - N/A   Clear
9:56 PM -23.8 °F -41.6 °F - N/A% 30.17 in 10.0 mi West 6.9 mph - N/A   Clear
10:16 PM -23.8 °F -41.6 °F - N/A% 30.18 in 10.0 mi West 6.9 mph - N/A   Clear
10:36 PM -23.8 °F -39.8 °F - N/A% 30.18 in 10.0 mi West 5.8 mph - N/A   Clear
10:56 PM -23.8 °F -41.6 °F - N/A% 30.19 in 10.0 mi West 6.9 mph - N/A   Clear
11:16 PM -23.8 °F -39.8 °F - N/A% 30.20 in 10.0 mi West 5.8 mph - N/A   Clear
11:36 PM -25.6 °F -41.9 °F - N/A% 30.20 in 10.0 mi West 5.8 mph - N/A   Clear
11:56 PM -25.6 °F -39.8 °F - N/A% 30.20 in 8.0 mi West 4.6 mph - N/A   Clear